Simultaneous Nadir Overpasses (SNOs) Predictions

Prediction of SNOs between AQUA and METOP-A Satellite Orbit:

Table of predicted SNOs for the next 14.0 days since TLE Epoch: 9/4/2015
Index Date (AQUA) Time (AQUA) Lat,Lon (AQUA) SZA (AQUA ) Date (METOP-A) Time (METOP-A) Lat,Lon (METOP-A) SZA (METOP-A ) Distance(km) Time Diff (sec)
1 09/06/2015 21:35:21 73.49,-148.86 67.15 09/06/2015 21:34:12 73.47,-150.67 67.19 57.25 69
2 09/06/2015 22:24:56 -73.96, 17.75 112.34 09/06/2015 22:24:44 -73.96, 17.80 112.35 1.53 12
3 09/06/2015 23:14:24 74.01,-174.71 67.73 09/06/2015 23:15:23 73.99,-174.78 67.71 2.63 59
4 09/09/2015 17:09:40 73.72, -82.91 68.44 09/09/2015 17:08:29 73.62, -83.93 68.38 33.63 71
5 09/09/2015 17:59:11 -73.98, 84.16 111.28 09/09/2015 17:59:04 -73.96, 84.20 111.30 2.62 7
6 09/09/2015 18:48:39 74.02,-108.32 68.79 09/09/2015 18:49:42 74.04,-108.26 68.80 2.59 63
7 09/12/2015 12:43:58 73.85, -16.78 69.65 09/12/2015 12:42:45 73.86, -16.95 69.67 5.19 73
8 09/12/2015 13:33:26 -73.95, 150.64 110.24 09/12/2015 13:33:25 -73.95, 150.60 110.24 1.22 1
9 09/12/2015 14:22:54 74.01, -41.84 69.83 09/12/2015 14:24:03 74.04, -41.86 69.86 3.53 69
10 09/15/2015 08:18:14 73.90, 49.55 70.77 09/15/2015 08:17:05 73.90, 49.56 70.78 0.53 69
11 09/15/2015 09:07:41 -73.95,-142.92 109.17 09/15/2015 09:07:46 -73.95,-143.01 109.17 2.94 5
12 09/15/2015 09:57:10 74.05, 24.48 70.96 09/15/2015 09:58:23 74.08, 24.65 70.97 5.83 73
13 09/18/2015 03:52:29 73.92, 115.95 71.86 09/18/2015 03:51:26 73.90, 115.94 71.85 2.10 63
14 09/18/2015 04:41:56 -73.96, -76.50 108.08 09/18/2015 04:42:06 -73.99, -76.51 108.05 3.34 10




NCC Satellite Simultaneous Nadir Overpasses (SNOs) Prediction Service
